Location: Hilton Head Island
(32.2163°N, 80.7526°W)
Time: 18:15:22
(UTC-04:00)

A-11 Canister half - Pass Details

Date: 16 February 2026
Orbit: 1525 x 1683 km, 47.3° (Epoch: 10 March)

Event Time Altitude Azimuth Distance (km) Brightness Sun altitude
Rises 20:48:15 0° 299° (WNW) 4,677 12.4 -34.0°
Reaches altitude 10° 20:51:45 10° 308° (NW) 3,691 11.6 -34.7°
Maximum altitude 20:59:58 34° 11° (N) 2,328 9.8 -36.5°
Enters shadow 21:00:07 34° 13° (NNE) 2,329 9.8 -36.5°
